Location: Betpouey
(42.8833°N, 0.0333°E)
Time: 22:29:04
(UTC+00:00)

SL-8 Rocket - Pass Details

Date: 01 December 2020
Orbit: 958 x 990 km, 82.9° (Epoch: 18 January)

Event Time Altitude Azimuth Distance (km) Brightness Sun altitude
Rises 17:14:07 0° 353° (N) 3,679 6.9 -8.7°
Reaches altitude 10° 17:16:39 10° 355° (N) 2,732 6.2 -9.1°
Maximum altitude 17:22:55 77° 81° (E) 1,011 4.0 -10.2°
Drops below altitude 10° 17:29:12 10° 168° (SSE) 2,734 6.5 -11.3°
Sets 17:31:43 0° 170° (S) 3,681 7.1 -11.7°
